Location: Kapuskasing
(49.3803°N, 82.4001°W)
Time: 10:15:05
(UTC-04:00)

RS-44 - Pass Details

Date: 23 March 2026
Orbit: 1175 x 1510 km, 82.5° (Epoch: 11 April)

Event Time Altitude Azimuth Distance (km) Brightness Sun altitude
Rises 04:09:39 0° 346° (NNW) 4,478 ? -29.7°
Reaches altitude 10° 04:12:34 10° 341° (NNW) 3,540 ? -29.4°
Maximum altitude 04:20:30 45° 273° (W) 1,941 ? -28.5°
Enters shadow 04:20:35 45° 271° (W) 1,942 ? -28.4°
